STARLINK-1478, 45755

Orbit data source: Space-Track

STARLINK-1478, 45755 is a payload satellite owned by SpaceX/Seattle (US) in LEO that was launched on Sat, 13 Jun 2020 UTC via an FALCON 9 launch vehicle from the Air Force Eastern Test Range (AFETR). Payload-class satellites include a variety of spacecraft equipped with specific instruments for various scientific and technological missions. These include communications satellites like Starlink; space stations such as the ISS; scientific satellites like the Hubble; Earth observation satellites from companies like Planet Labs, Umbra, and HawkEye 360; GPS; miniature CubeSats for education and research; and military/defense satellites.

Loading next visibility...
Identifier
45755, 2020-038AB
Orbit
LEO
Last TLE update
18 hours ago
Origin
Manufacturer
SpaceX/Seattle
Mission
Operational Commercial Communications
Bus & Motor
STARLINK, Unknown motor
Mass
260 kg wet, ~248 kg dry
Launch date (UTC)
2020-06-13 (5 years ago)
Launch vehicle
FALCON 9
Launch site
Air Force Eastern Test Range (AFETR)
Object type
Payload
Rocket body
Debris
Shape & HBR
Box + 1 Pan, 8.86 m
Radar Cross Section
13.562 m², Large (>1 m²)

Expand to show TLE details & history

TLE from 18 hours ago
0 STARLINK-1478
1 45755U 20038AB  25181.67977704  .00001441  00000-0  11561-3 0  9990
2 45755  53.0558 267.9361 0001123  92.3836 267.7282 15.06390517278486
Epoch: 2025-06-30T16:18Z
TLE epoch observation values (Epoch: 2025-06-30T16:18:52.736Z)
Latitude
0.00002°
Longitude
104.23027°
Altitude
548.151 km
Speed
7.589 km/s
True Right ascension
17h 51m 44s
True Declination
0° 00' 00"
Sunlit
Object was in full shadow at epoch
Visualization orbit readout
Latitude
6.03062°
Longitude
-83.72116°
Altitude
547.365 km
Speed
7.59 km/s
Apparent Right ascension
07h 18m 14s
Apparent Declination
-19° 22' 46"
Sunlit
Object is in daylight
Visualization observer readout
Local Sidereal Time
22:14:00
Azimuth
74.516° E
Elevation
-47.213°
Doppler factor
1
Orbital elements
Apogee altitude
548.289 km
Perigee altitude
546.733 km
Semi-major axis
6,925.648 km
Eccentricity
0.00011
Inclination
53.0558°
RAAN
267.9361°
Arg. of periapsis
92.3836°
True anomaly
Unknown
Mean anomaly
267.7282°
Eccentric anomaly
Unknown
Mean motion
3.76576 °/min
Orbital period
95.6 mins
BSTAR
0.00011561
Loading maneuver chart data...
Loading SW <> Apogee altitude chart data...

STARLINK-1478 Visibility forecast

Observer location: undefined°, undefined°

Span
Click to sort rows by Start time (UTC) header in descending order
Start Az.
Max El. time (UTC)
Max El. Az.
Max El.
End time (UTC)
End Az.
6 mins2025-07-01 15:07:32.059Z317.361° NNW2025-07-01 15:09:32.059Z25.346° NE43.952°2025-07-01 15:13:32.059Z124.495° SE
6 mins2025-07-02 08:19:32.059Z235.8° WSW2025-07-02 08:21:32.059Z274.898° WNW44.165°2025-07-02 08:25:32.059Z48.217° ENE
4 mins2025-07-02 10:00:32.059Z315.014° NNW2025-07-02 10:01:32.059Z334.2° NNW18.732°2025-07-02 10:04:32.059Z24.839° NE
|